| time (UTC) | temp F | wind direction | speed MPH | gust MPH | rain 1hr in | rain 24hr in | rain mn in | humidity % | barometer mb |
| 20260901162745 | 83 | 93 | 0.0 | 0.0 | 0.00 | 0.00 | 0.00 | 87 | 1015.4 |
| 20260901162245 | 83 | 81 | 1.0 | 1.0 | 0.00 | 0.00 | 0.00 | 86 | 1015.3 |
| 20260901161743 | 84 | 81 | 1.0 | 1.0 | 0.00 | 0.00 | 0.00 | 85 | 1015.8 |
| 20260901161238 | 84 | 87 | 1.0 | 1.0 | 0.00 | 0.00 | 0.00 | 86 | 1016.0 |
| 20260901160734 | 83 | 95 | 1.0 | 1.0 | 0.00 | 0.00 | 0.00 | 88 | 1016.5 |
| 20260901160230 | 83 | 77 | 1.0 | 1.0 | 0.00 | 0.00 | 0.00 | 87 | 1016.0 |
| 20260901155728 | 83 | 113 | 1.0 | 1.0 | 0.00 | 0.00 | 0.00 | 87 | 1016.3 |
| 20260901155224 | 84 | 244 | 2.0 | 2.0 | 0.00 | 0.00 | 0.00 | 85 | 1016.0 |
| 20260901154719 | 84 | 161 | 3.0 | 3.0 | 0.00 | 0.00 | 0.00 | 84 | 1015.8 |
| 20260901154215 | 83 | 72 | 0.0 | 0.0 | 0.00 | 0.00 | 0.00 | 86 | 1015.9 |
| 20260901153709 | 83 | 108 | 1.0 | 1.0 | 0.00 | 0.00 | 0.00 | 86 | 1016.0 |
| 20260901153203 | 83 | 23 | 2.0 | 2.0 | 0.00 | 0.00 | 0.00 | 86 | 1015.8 |
| 20260901152658 | 83 | 56 | 2.0 | 2.0 | 0.00 | 0.00 | 0.00 | 85 | 1015.8 |
| 20260901152156 | 84 | 75 | 0.0 | 0.0 | 0.00 | 0.00 | 0.00 | 85 | 1015.8 |
| 20260901151653 | 84 | 80 | 0.0 | 0.0 | 0.00 | 0.00 | 0.00 | 85 | 1015.8 |
| 20260901151151 | 84 | 80 | 0.0 | 0.0 | 0.00 | 0.00 | 0.00 | 84 | 1015.8 |
| 20260901150651 | 84 | 109 | 0.0 | 1.0 | 0.00 | 0.00 | 0.00 | 84 | 1016.0 |
| 20260901150149 | 84 | 113 | 1.0 | 2.0 | 0.00 | 0.00 | 0.00 | 83 | 1015.7 |
| 20260901145648 | 84 | 81 | 0.0 | 1.0 | 0.00 | 0.00 | 0.00 | 83 | 1016.0 |
| 20260901145148 | 83 | 77 | 0.0 | 0.0 | 0.00 | 0.00 | 0.00 | 86 | 1015.8 |
| 20260901144643 | 82 | 75 | 0.0 | 0.0 | 0.00 | 0.00 | 0.00 | 87 | 1015.9 |
| 20260901144138 | 82 | 80 | 0.0 | 0.0 | 0.00 | 0.00 | 0.00 | 86 | 1015.9 |
| 20260901143633 | 82 | 79 | 0.0 | 0.0 | 0.00 | 0.00 | 0.00 | 86 | 1015.9 |
| 20260901143130 | 82 | 61 | 1.0 | 1.0 | 0.00 | 0.00 | 0.00 | 86 | 1015.8 |
| 20260901142626 | 82 | 11 | 2.0 | 2.0 | 0.00 | 0.00 | 0.00 | 86 | 1016.0 |
| 20260901142125 | 81 | 356 | 1.0 | 2.0 | 0.00 | 0.00 | 0.00 | 86 | 1015.9 |
| 20260901141620 | 80 | 95 | 1.0 | 1.0 | 0.00 | 0.00 | 0.00 | 88 | 1016.0 |
| 20260901141114 | 80 | 35 | 1.0 | 1.0 | 0.00 | 0.00 | 0.00 | 88 | 1016.1 |
| 20260901140613 | 79 | 106 | 2.0 | 2.0 | 0.00 | 0.00 | 0.00 | 88 | 1015.8 |
| 20260901140113 | 79 | 257 | 1.0 | 2.0 | 0.00 | 0.00 | 0.00 | 89 | 1016.1 |
| 20260901135612 | 79 | 27 | 1.0 | 1.0 | 0.00 | 0.00 | 0.00 | 89 | 1016.0 |
| 20260901135108 | 78 | 78 | 0.0 | 0.0 | 0.00 | 0.00 | 0.00 | 90 | 1015.8 |
| 20260901134603 | 78 | 98 | 0.0 | 0.0 | 0.00 | 0.00 | 0.00 | 91 | 1016.0 |
| 20260901134058 | 77 | 28 | 0.0 | 0.0 | 0.00 | 0.00 | 0.00 | 91 | 1015.8 |
| 20260901133557 | 77 | 80 | 0.0 | 1.0 | 0.00 | 0.00 | 0.00 | 92 | 1016.0 |
| 20260901133056 | 77 | 46 | 0.0 | 0.0 | 0.00 | 0.00 | 0.00 | 92 | 1015.8 |
| 20260901132551 | 76 | 106 | 1.0 | 1.0 | 0.00 | 0.00 | 0.00 | 92 | 1016.0 |
| 20260901132050 | 76 | 96 | 0.0 | 1.0 | 0.00 | 0.00 | 0.00 | 93 | 1016.0 |
| 20260901131544 | 75 | 96 | 0.0 | 0.0 | 0.00 | 0.00 | 0.00 | 94 | 1015.8 |
| 20260901131034 | 75 | 176 | 1.0 | 2.0 | 0.00 | 0.00 | 0.00 | 95 | 1016.0 |
| 20260901130534 | 75 | 95 | 1.0 | 1.0 | 0.00 | 0.00 | 0.00 | 96 | 1015.8 |
| 20260901130033 | 74 | 106 | 1.0 | 1.0 | 0.00 | 0.00 | 0.00 | 96 | 1015.7 |
| 20260901125531 | 73 | 79 | 0.0 | 0.0 | 0.00 | 0.00 | 0.00 | 97 | 1016.1 |
| 20260901125027 | 73 | 91 | 0.0 | 0.0 | 0.00 | 0.00 | 0.00 | 97 | 1015.9 |
| 20260901124522 | 73 | 81 | 0.0 | 0.0 | 0.00 | 0.00 | 0.00 | 97 | 1015.9 |
| 20260901124021 | 73 | 82 | 0.0 | 0.0 | 0.00 | 0.00 | 0.00 | 97 | 1016.1 |
| 20260901123516 | 73 | 96 | 0.0 | 0.0 | 0.00 | 0.00 | 0.00 | 97 | 1015.9 |
| 20260901123016 | 73 | 80 | 0.0 | 0.0 | 0.00 | 0.00 | 0.00 | 98 | 1015.9 |
| 20260901122514 | 73 | 105 | 0.0 | 0.0 | 0.00 | 0.00 | 0.00 | 98 | 1015.8 |
| 20260901122014 | 73 | 80 | 0.0 | 0.0 | 0.00 | 0.00 | 0.00 | 98 | 1015.7 |
| 20260901121509 | 72 | 93 | 0.0 | 0.0 | 0.00 | 0.00 | 0.00 | 98 | 1015.7 |
| 20260901121004 | 72 | 79 | 0.0 | 0.0 | 0.00 | 0.00 | 0.00 | 98 | 1015.4 |
| 20260901120503 | 72 | 95 | 0.0 | 0.0 | 0.00 | 0.00 | 0.00 | 98 | 1015.6 |
| 20260901115959 | 72 | 86 | 0.0 | 0.0 | 0.00 | 0.00 | 0.00 | 98 | 1015.7 |
| 20260901115454 | 72 | 90 | 0.0 | 0.0 | 0.00 | 0.00 | 0.00 | 98 | 1015.4 |
| 20260901114952 | 72 | 92 | 0.0 | 0.0 | 0.00 | 0.00 | 0.00 | 98 | 1015.4 |
| 20260901114447 | 72 | 84 | 0.0 | 0.0 | 0.00 | 0.00 | 0.00 | 98 | 1015.1 |
| 20260901113945 | 72 | 100 | 0.0 | 0.0 | 0.00 | 0.00 | 0.00 | 98 | 1015.1 |
| 20260901113444 | 72 | 87 | 0.0 | 0.0 | 0.00 | 0.00 | 0.00 | 98 | 1015.0 |
| 20260901112939 | 72 | 82 | 0.0 | 0.0 | 0.00 | 0.00 | 0.00 | 98 | 1014.9 |
| 20260901112434 | 71 | 87 | 0.0 | 0.0 | 0.00 | 0.00 | 0.00 | 98 | 1014.8 |
| 20260901111924 | 71 | 85 | 0.0 | 0.0 | 0.00 | 0.00 | 0.00 | 98 | 1015.0 |
| 20260901111422 | 71 | 96 | 0.0 | 0.0 | 0.00 | 0.00 | 0.00 | 98 | 1014.6 |
| 20260901110921 | 71 | 86 | 0.0 | 0.0 | 0.00 | 0.00 | 0.00 | 98 | 1014.9 |
| 20260901110417 | 71 | 87 | 0.0 | 0.0 | 0.00 | 0.00 | 0.00 | 98 | 1014.7 |
| 20260901105913 | 71 | 84 | 0.0 | 0.0 | 0.00 | 0.00 | 0.00 | 98 | 1014.3 |
| 20260901105408 | 72 | 84 | 0.0 | 0.0 | 0.00 | 0.00 | 0.00 | 98 | 1014.5 |
| 20260901104904 | 71 | 84 | 0.0 | 0.0 | 0.00 | 0.00 | 0.00 | 97 | 1014.9 |
| 20260901104359 | 72 | 92 | 0.0 | 0.0 | 0.00 | 0.00 | 0.00 | 97 | 1014.7 |
| 20260901103854 | 72 | 82 | 0.0 | 0.0 | 0.00 | 0.00 | 0.00 | 98 | 1014.7 |
| 20260901103348 | 72 | 87 | 0.0 | 0.0 | 0.00 | 0.00 | 0.00 | 98 | 1014.5 |
| 20260901102843 | 72 | 41 | 0.0 | 0.0 | 0.00 | 0.00 | 0.00 | 98 | 1014.6 |
| 20260901102338 | 72 | 95 | 0.0 | 0.0 | 0.00 | 0.00 | 0.00 | 97 | 1014.6 |
| 20260901101834 | 72 | 88 | 0.0 | 0.0 | 0.00 | 0.00 | 0.00 | 97 | 1014.5 |
| 20260901101333 | 71 | 87 | 0.0 | 0.0 | 0.00 | 0.00 | 0.00 | 97 | 1014.7 |
| 20260901100833 | 72 | 80 | 0.0 | 0.0 | 0.00 | 0.00 | 0.00 | 97 | 1014.6 |
| 20260901100328 | 72 | 88 | 0.0 | 0.0 | 0.00 | 0.00 | 0.00 | 97 | 1014.7 |
| 20260901095827 | 72 | 87 | 0.0 | 0.0 | 0.00 | 0.00 | 0.00 | 97 | 1014.7 |
| 20260901095324 | 72 | 85 | 0.0 | 0.0 | 0.00 | 0.00 | 0.00 | 97 | 1014.6 |
| 20260901094818 | 72 | 87 | 0.0 | 0.0 | 0.00 | 0.00 | 0.00 | 97 | 1014.9 |
| 20260901094313 | 72 | 81 | 0.0 | 0.0 | 0.00 | 0.00 | 0.00 | 97 | 1014.7 |
| 20260901093808 | 72 | 88 | 0.0 | 0.0 | 0.00 | 0.00 | 0.00 | 97 | 1014.7 |
| 20260901093307 | 72 | 88 | 0.0 | 0.0 | 0.00 | 0.00 | 0.00 | 97 | 1014.4 |
| 20260901092803 | 72 | 87 | 0.0 | 0.0 | 0.00 | 0.00 | 0.00 | 97 | 1014.5 |
| 20260901092259 | 72 | 82 | 0.0 | 0.0 | 0.00 | 0.00 | 0.00 | 97 | 1014.6 |
| 20260901091755 | 72 | 86 | 0.0 | 0.0 | 0.00 | 0.00 | 0.00 | 97 | 1014.5 |
| 20260901091249 | 72 | 84 | 0.0 | 0.0 | 0.00 | 0.00 | 0.00 | 97 | 1014.5 |
| 20260901090744 | 72 | 88 | 0.0 | 0.0 | 0.00 | 0.00 | 0.00 | 97 | 1014.4 |
| 20260901090239 | 72 | 88 | 0.0 | 0.0 | 0.00 | 0.00 | 0.00 | 97 | 1014.3 |
| 20260901085735 | 72 | 88 | 0.0 | 0.0 | 0.00 | 0.00 | 0.00 | 97 | 1014.3 |
| 20260901085230 | 72 | 81 | 0.0 | 0.0 | 0.00 | 0.00 | 0.00 | 97 | 1014.5 |
| 20260901084727 | 72 | 80 | 0.0 | 0.0 | 0.00 | 0.00 | 0.00 | 97 | 1014.7 |
| 20260901084222 | 72 | 80 | 0.0 | 0.0 | 0.00 | 0.00 | 0.00 | 97 | 1014.6 |
| 20260901083717 | 72 | 86 | 0.0 | 0.0 | 0.00 | 0.00 | 0.00 | 97 | 1014.4 |
| 20260901083216 | 72 | 80 | 0.0 | 0.0 | 0.00 | 0.00 | 0.00 | 96 | 1014.3 |
| 20260901082715 | 72 | 84 | 0.0 | 0.0 | 0.00 | 0.00 | 0.00 | 96 | 1014.3 |
| 20260901082211 | 72 | 88 | 0.0 | 0.0 | 0.00 | 0.00 | 0.00 | 96 | 1014.4 |
| 20260901081707 | 72 | 82 | 0.0 | 0.0 | 0.00 | 0.00 | 0.00 | 96 | 1014.3 |
| 20260901081206 | 72 | 86 | 0.0 | 0.0 | 0.00 | 0.00 | 0.00 | 96 | 1014.5 |
| 20260901080701 | 72 | 88 | 0.0 | 0.0 | 0.00 | 0.00 | 0.00 | 96 | 1014.5 |
| 20260901080159 | 72 | 86 | 0.0 | 0.0 | 0.00 | 0.00 | 0.00 | 96 | 1014.5 |
| 20260901075654 | 73 | 79 | 0.0 | 0.0 | 0.00 | 0.00 | 0.00 | 96 | 1014.6 |
| 20260901075149 | 72 | 79 | 0.0 | 0.0 | 0.00 | 0.00 | 0.00 | 96 | 1014.4 |
| 20260901074648 | 73 | 79 | 0.0 | 0.0 | 0.00 | 0.00 | 0.00 | 96 | 1014.4 |
| 20260901074144 | 73 | 103 | 0.0 | 0.0 | 0.00 | 0.00 | 0.00 | 96 | 1014.3 |
| 20260901073640 | 73 | 86 | 0.0 | 0.0 | 0.00 | 0.00 | 0.00 | 96 | 1014.3 |
| 20260901073136 | 73 | 93 | 0.0 | 0.0 | 0.00 | 0.00 | 0.00 | 96 | 1014.4 |
| 20260901072630 | 73 | 87 | 0.0 | 0.0 | 0.00 | 0.00 | 0.00 | 96 | 1014.3 |
| 20260901072125 | 73 | 109 | 0.0 | 0.0 | 0.00 | 0.00 | 0.00 | 96 | 1014.2 |
| 20260901071625 | 73 | 80 | 0.0 | 1.0 | 0.00 | 0.00 | 0.00 | 96 | 1014.5 |
| 20260901071124 | 73 | 73 | 0.0 | 1.0 | 0.00 | 0.00 | 0.00 | 96 | 1014.6 |
| 20260901070619 | 73 | 85 | 0.0 | 0.0 | 0.00 | 0.00 | 0.00 | 96 | 1014.5 |
| 20260901070114 | 73 | 113 | 0.0 | 1.0 | 0.00 | 0.00 | 0.00 | 96 | 1014.3 |
| 20260901065608 | 73 | 76 | 0.0 | 0.0 | 0.00 | 0.00 | 0.00 | 96 | 1014.7 |
| 20260901065103 | 73 | 83 | 0.0 | 0.0 | 0.00 | 0.00 | 0.00 | 96 | 1014.5 |
| 20260901064600 | 73 | 85 | 0.0 | 0.0 | 0.00 | 0.00 | 0.00 | 96 | 1014.6 |
| 20260901064056 | 73 | 88 | 0.0 | 0.0 | 0.00 | 0.00 | 0.00 | 95 | 1014.3 |
| 20260901063553 | 73 | 64 | 0.0 | 0.0 | 0.00 | 0.00 | 0.00 | 95 | 1014.4 |
| 20260901063049 | 73 | 79 | 0.0 | 0.0 | 0.00 | 0.00 | 0.00 | 95 | 1014.6 |
| 20260901062544 | 73 | 80 | 0.0 | 0.0 | 0.00 | 0.00 | 0.00 | 95 | 1014.4 |
| 20260901062040 | 73 | 81 | 0.0 | 0.0 | 0.00 | 0.00 | 0.00 | 95 | 1014.4 |
| 20260901061537 | 73 | 80 | 0.0 | 0.0 | 0.00 | 0.00 | 0.00 | 95 | 1014.4 |
| 20260901061036 | 73 | 80 | 0.0 | 0.0 | 0.00 | 0.00 | 0.00 | 95 | 1014.4 |
| 20260901060531 | 73 | 86 | 0.0 | 0.0 | 0.00 | 0.00 | 0.00 | 95 | 1014.4 |
| 20260901060026 | 73 | 237 | 0.0 | 1.0 | 0.00 | 0.00 | 0.00 | 95 | 1014.5 |
| 20260901055521 | 74 | 81 | 0.0 | 0.0 | 0.00 | 0.00 | 0.00 | 95 | 1014.2 |
| 20260901055018 | 74 | 87 | 0.0 | 0.0 | 0.00 | 0.00 | 0.00 | 95 | 1014.5 |
| 20260901054515 | 74 | 122 | 0.0 | 0.0 | 0.00 | 0.00 | 0.00 | 95 | 1014.4 |
| 20260901054011 | 74 | 85 | 0.0 | 0.0 | 0.00 | 0.00 | 0.00 | 95 | 1014.5 |
| 20260901053506 | 74 | 85 | 0.0 | 0.0 | 0.00 | 0.00 | 0.00 | 95 | 1014.5 |
| 20260901053002 | 74 | 79 | 0.0 | 0.0 | 0.00 | 0.00 | 0.00 | 94 | 1014.3 |
| 20260901052458 | 74 | 95 | 0.0 | 0.0 | 0.00 | 0.00 | 0.00 | 94 | 1014.3 |
| 20260901051956 | 74 | 81 | 0.0 | 0.0 | 0.00 | 0.00 | 0.00 | 94 | 1014.4 |
| 20260901051452 | 74 | 66 | 0.0 | 0.0 | 0.00 | 0.00 | 0.00 | 94 | 1014.4 |
| 20260901050951 | 74 | 72 | 0.0 | 0.0 | 0.00 | 0.00 | 0.00 | 94 | 1014.5 |
| 20260901050447 | 74 | 87 | 0.0 | 0.0 | 0.00 | 0.00 | 0.00 | 94 | 1014.5 |
| 20260901045946 | 75 | 88 | 1.0 | 1.0 | 0.00 | 0.29 | 0.29 | 94 | 1014.4 |
| 20260901045442 | 75 | 88 | 1.0 | 1.0 | 0.00 | 0.29 | 0.29 | 94 | 1014.5 |
| 20260901044937 | 75 | 83 | 0.0 | 0.0 | 0.00 | 0.29 | 0.29 | 94 | 1014.6 |
| 20260901044432 | 75 | 90 | 0.0 | 0.0 | 0.00 | 0.29 | 0.29 | 94 | 1014.6 |
| 20260901043928 | 75 | 82 | 0.0 | 0.0 | 0.00 | 0.29 | 0.29 | 94 | 1014.7 |
| 20260901043424 | 75 | 57 | 0.0 | 1.0 | 0.00 | 0.29 | 0.29 | 94 | 1014.5 |
| 20260901042918 | 75 | 82 | 0.0 | 0.0 | 0.00 | 0.29 | 0.29 | 94 | 1014.5 |
| 20260901042413 | 75 | 75 | 0.0 | 0.0 | 0.00 | 0.29 | 0.29 | 94 | 1014.6 |
| 20260901041909 | 75 | 82 | 0.0 | 0.0 | 0.00 | 0.29 | 0.29 | 94 | 1014.6 |
| 20260901041408 | 75 | 80 | 0.0 | 0.0 | 0.00 | 0.29 | 0.29 | 93 | 1014.6 |
| 20260901040908 | 75 | 17 | 0.0 | 0.0 | 0.00 | 0.29 | 0.29 | 93 | 1014.3 |
| 20260901040408 | 75 | 88 | 0.0 | 0.0 | 0.00 | 0.29 | 0.29 | 93 | 1014.7 |
| 20260901035902 | 75 | 205 | 1.0 | 1.0 | 0.00 | 0.29 | 0.29 | 93 | 1014.5 |
| 20260901035401 | 75 | 86 | 0.0 | 0.0 | 0.00 | 0.29 | 0.29 | 93 | 1014.7 |
| 20260901034859 | 75 | 76 | 0.0 | 1.0 | 0.00 | 0.29 | 0.29 | 93 | 1014.7 |
| 20260901034354 | 75 | 80 | 0.0 | 0.0 | 0.00 | 0.29 | 0.29 | 93 | 1014.8 |
| 20260901033849 | 76 | 136 | 1.0 | 1.0 | 0.00 | 0.29 | 0.29 | 93 | 1014.6 |
| 20260901033348 | 76 | 85 | 0.0 | 0.0 | 0.00 | 0.29 | 0.29 | 93 | 1014.8 |
| 20260901032847 | 76 | 184 | 1.0 | 1.0 | 0.00 | 0.29 | 0.29 | 93 | 1014.7 |
| 20260901032346 | 76 | 117 | 0.0 | 1.0 | 0.00 | 0.29 | 0.29 | 93 | 1014.7 |
| 20260901031842 | 76 | 79 | 0.0 | 0.0 | 0.00 | 0.29 | 0.29 | 92 | 1014.7 |
| 20260901031338 | 76 | 83 | 0.0 | 0.0 | 0.00 | 0.29 | 0.29 | 92 | 1014.6 |
| 20260901030837 | 76 | 78 | 0.0 | 0.0 | 0.00 | 0.29 | 0.29 | 92 | 1014.6 |
| 20260901030333 | 76 | 83 | 0.0 | 0.0 | 0.00 | 0.29 | 0.29 | 92 | 1014.5 |
| 20260901025832 | 76 | 83 | 0.0 | 0.0 | 0.00 | 0.29 | 0.29 | 91 | 1014.8 |
| 20260901025326 | 77 | 84 | 0.0 | 0.0 | 0.00 | 0.29 | 0.29 | 91 | 1014.6 |
| 20260901024816 | 77 | 97 | 0.0 | 1.0 | 0.00 | 0.29 | 0.29 | 91 | 1014.8 |
| 20260901024315 | 77 | 147 | 1.0 | 1.0 | 0.00 | 0.29 | 0.29 | 91 | 1014.9 |
| 20260901023813 | 77 | 90 | 0.0 | 0.0 | 0.00 | 0.29 | 0.29 | 91 | 1014.9 |
| 20260901023308 | 77 | 147 | 1.0 | 1.0 | 0.00 | 0.29 | 0.29 | 91 | 1014.7 |
| 20260901022804 | 77 | 88 | 0.0 | 0.0 | 0.00 | 0.29 | 0.29 | 91 | 1014.7 |
| 20260901022300 | 77 | 66 | 0.0 | 1.0 | 0.00 | 0.29 | 0.29 | 91 | 1014.9 |
| 20260901021754 | 77 | 74 | 0.0 | 1.0 | 0.00 | 0.29 | 0.29 | 90 | 1014.8 |
| 20260901021250 | 77 | 96 | 0.0 | 0.0 | 0.00 | 0.29 | 0.29 | 90 | 1014.7 |
| 20260901020745 | 77 | 137 | 0.0 | 1.0 | 0.00 | 0.29 | 0.29 | 90 | 1014.4 |
| 20260901020240 | 77 | 77 | 0.0 | 0.0 | 0.00 | 0.29 | 0.29 | 90 | 1014.7 |
| 20260901015735 | 78 | 99 | 1.0 | 1.0 | 0.00 | 0.29 | 0.29 | 90 | 1014.6 |
| 20260901015231 | 78 | 84 | 0.0 | 0.0 | 0.00 | 0.29 | 0.29 | 90 | 1014.1 |
| 20260901014730 | 78 | 83 | 0.0 | 0.0 | 0.00 | 0.29 | 0.29 | 89 | 1014.2 |
| 20260901014226 | 78 | 92 | 0.0 | 0.0 | 0.00 | 0.29 | 0.29 | 89 | 1014.3 |
| 20260901013722 | 78 | 125 | 1.0 | 1.0 | 0.00 | 0.29 | 0.29 | 89 | 1014.2 |
| 20260901013217 | 78 | 94 | 0.0 | 0.0 | 0.00 | 0.29 | 0.29 | 88 | 1014.3 |
| 20260901012713 | 78 | 82 | 0.0 | 0.0 | 0.00 | 0.29 | 0.29 | 88 | 1014.4 |
| 20260901012213 | 79 | 78 | 0.0 | 0.0 | 0.00 | 0.29 | 0.29 | 88 | 1014.2 |
| 20260901011708 | 79 | 78 | 1.0 | 1.0 | 0.00 | 0.29 | 0.29 | 88 | 1014.3 |
| 20260901011208 | 79 | 170 | 1.0 | 1.0 | 0.00 | 0.29 | 0.29 | 87 | 1013.9 |
| 20260901010702 | 80 | 81 | 0.0 | 0.0 | 0.00 | 0.29 | 0.29 | 86 | 1013.9 |
| 20260901010157 | 80 | 90 | 0.0 | 0.0 | 0.00 | 0.29 | 0.29 | 86 | 1014.0 |
| 20260901005656 | 80 | 102 | 1.0 | 1.0 | 0.00 | 0.29 | 0.29 | 86 | 1013.9 |
| 20260901005151 | 80 | 102 | 2.0 | 2.0 | 0.00 | 0.29 | 0.29 | 85 | 1013.9 |
| 20260901004651 | 80 | 84 | 0.0 | 1.0 | 0.00 | 0.29 | 0.29 | 85 | 1013.8 |
| 20260901004145 | 80 | 82 | 1.0 | 2.0 | 0.00 | 0.29 | 0.29 | 84 | 1013.6 |
| 20260901003635 | 80 | 80 | 0.0 | 0.0 | 0.00 | 0.29 | 0.29 | 84 | 1013.8 |
| 20260901003134 | 81 | 71 | 1.0 | 1.0 | 0.00 | 0.29 | 0.29 | 84 | 1013.9 |
| 20260901002634 | 81 | 28 | 1.0 | 1.0 | 0.00 | 0.29 | 0.29 | 83 | 1013.9 |
| 20260901002128 | 81 | 79 | 1.0 | 1.0 | 0.00 | 0.29 | 0.29 | 83 | 1013.7 |
| 20260901001624 | 81 | 258 | 1.0 | 2.0 | 0.00 | 0.29 | 0.29 | 82 | 1013.7 |
| 20260901001119 | 81 | 83 | 0.0 | 1.0 | 0.00 | 0.29 | 0.29 | 82 | 1013.9 |
| 20260901000614 | 81 | 92 | 1.0 | 1.0 | 0.00 | 0.29 | 0.29 | 82 | 1013.7 |
| 20260901000109 | 81 | 43 | 2.0 | 3.0 | 0.00 | 0.29 | 0.29 | 82 | 1013.6 |
| 20260831235603 | 81 | 119 | 1.0 | 1.0 | 0.00 | 0.29 | 0.29 | 81 | 1013.4 |
| 20260831235059 | 81 | 100 | 2.0 | 2.0 | 0.00 | 0.29 | 0.29 | 81 | 1013.7 |
| 20260831234552 | 82 | 104 | 0.0 | 0.0 | 0.00 | 0.29 | 0.29 | 81 | 1013.7 |
| 20260831234048 | 81 | 122 | 0.0 | 1.0 | 0.00 | 0.29 | 0.29 | 81 | 1013.5 |
| 20260831233543 | 81 | 184 | 2.0 | 3.0 | 0.00 | 0.29 | 0.29 | 80 | 1013.5 |
| 20260831233039 | 82 | 167 | 3.0 | 5.0 | 0.00 | 0.29 | 0.29 | 81 | 1013.5 |
| 20260831232534 | 82 | 125 | 3.0 | 3.0 | 0.00 | 0.29 | 0.29 | 80 | 1013.4 |
| 20260831232030 | 82 | 116 | 1.0 | 1.0 | 0.00 | 0.29 | 0.29 | 80 | 1013.6 |
| 20260831231526 | 82 | 109 | 1.0 | 1.0 | 0.00 | 0.29 | 0.29 | 80 | 1013.6 |
| 20260831231021 | 82 | 116 | 2.0 | 2.0 | 0.00 | 0.29 | 0.29 | 80 | 1013.5 |
| 20260831230516 | 82 | 155 | 3.0 | 5.0 | 0.00 | 0.29 | 0.29 | 79 | 1013.5 |
| 20260831230011 | 82 | 178 | 1.0 | 1.0 | 0.00 | 0.29 | 0.29 | 79 | 1013.5 |
| 20260831225507 | 82 | 180 | 1.0 | 2.0 | 0.00 | 0.29 | 0.29 | 79 | 1013.3 |
| 20260831225006 | 82 | 233 | 3.0 | 3.0 | 0.00 | 0.29 | 0.29 | 79 | 1013.5 |
| 20260831224501 | 82 | 229 | 3.0 | 5.0 | 0.00 | 0.29 | 0.29 | 78 | 1013.2 |
| 20260831223956 | 82 | 63 | 2.0 | 2.0 | 0.00 | 0.29 | 0.29 | 79 | 1013.3 |
| 20260831223452 | 82 | 233 | 2.0 | 2.0 | 0.00 | 0.29 | 0.29 | 79 | 1013.1 |
| 20260831222948 | 83 | 276 | 3.0 | 3.0 | 0.00 | 0.29 | 0.29 | 78 | 1013.1 |
| 20260831222444 | 84 | 109 | 3.0 | 3.0 | 0.00 | 0.29 | 0.29 | 77 | 1013.2 |
| 20260831221938 | 83 | 233 | 3.0 | 5.0 | 0.00 | 0.29 | 0.29 | 78 | 1013.1 |
| 20260831221434 | 83 | 101 | 3.0 | 5.0 | 0.00 | 0.29 | 0.29 | 77 | 1013.4 |
| 20260831220929 | 84 | 181 | 2.0 | 3.0 | 0.00 | 0.29 | 0.29 | 77 | 1013.6 |
| 20260831220424 | 84 | 0 | 4.0 | 5.0 | 0.00 | 0.29 | 0.29 | 77 | 1013.3 |
| 20260831215919 | 84 | 135 | 1.0 | 2.0 | 0.00 | 0.29 | 0.29 | 77 | 1013.4 |
| 20260831215415 | 84 | 244 | 3.0 | 5.0 | 0.00 | 0.29 | 0.29 | 76 | 1013.3 |
| 20260831214911 | 83 | 222 | 2.0 | 5.0 | 0.00 | 0.29 | 0.29 | 77 | 1013.4 |
| 20260831214409 | 84 | 223 | 2.0 | 2.0 | 0.00 | 0.29 | 0.29 | 77 | 1013.4 |
| 20260831213904 | 84 | 88 | 1.0 | 1.0 | 0.00 | 0.29 | 0.29 | 76 | 1013.4 |
| 20260831213401 | 84 | 123 | 2.0 | 2.0 | 0.00 | 0.29 | 0.29 | 76 | 1013.5 |
| 20260831212855 | 84 | 62 | 0.0 | 1.0 | 0.00 | 0.29 | 0.29 | 76 | 1013.5 |
| 20260831212352 | 83 | 88 | 0.0 | 1.0 | 0.00 | 0.29 | 0.29 | 77 | 1013.5 |
| 20260831211850 | 83 | 180 | 3.0 | 3.0 | 0.00 | 0.29 | 0.29 | 77 | 1013.4 |
| 20260831211345 | 83 | 215 | 2.0 | 3.0 | 0.00 | 0.29 | 0.29 | 77 | 1013.5 |
| 20260831210845 | 83 | 83 | 0.0 | 1.0 | 0.00 | 0.29 | 0.29 | 77 | 1013.3 |
| 20260831210340 | 82 | 154 | 2.0 | 2.0 | 0.00 | 0.29 | 0.29 | 78 | 1013.0 |
| 20260831205836 | 82 | 134 | 3.0 | 5.0 | 0.00 | 0.29 | 0.29 | 78 | 1012.8 |
| 20260831205331 | 82 | 133 | 0.0 | 1.0 | 0.00 | 0.29 | 0.29 | 78 | 1012.8 |
| 20260831204826 | 82 | 93 | 0.0 | 1.0 | 0.00 | 0.29 | 0.29 | 77 | 1012.6 |
| 20260831204325 | 82 | 343 | 0.0 | 1.0 | 0.00 | 0.29 | 0.29 | 78 | 1012.9 |
| 20260831203824 | 82 | 53 | 2.0 | 2.0 | 0.00 | 0.29 | 0.29 | 77 | 1012.8 |
| 20260831203319 | 82 | 150 | 1.0 | 2.0 | 0.00 | 0.29 | 0.29 | 78 | 1013.0 |
| 20260831202817 | 82 | 183 | 1.0 | 3.0 | 0.00 | 0.29 | 0.29 | 77 | 1013.1 |
| 20260831202312 | 82 | 131 | 3.0 | 3.0 | 0.00 | 0.29 | 0.29 | 77 | 1013.4 |
| 20260831201807 | 82 | 116 | 1.0 | 1.0 | 0.00 | 0.29 | 0.29 | 76 | 1013.3 |
| 20260831201305 | 82 | 286 | 3.0 | 3.0 | 0.00 | 0.29 | 0.29 | 75 | 1013.3 |
| 20260831200801 | 83 | 137 | 2.0 | 2.0 | 0.00 | 0.29 | 0.29 | 74 | 1013.2 |
| 20260831200256 | 83 | 119 | 1.0 | 1.0 | 0.00 | 0.29 | 0.29 | 73 | 1013.1 |
| 20260831195751 | 84 | 85 | 2.0 | 2.0 | 0.00 | 0.29 | 0.29 | 73 | 1013.1 |
| 20260831195247 | 84 | 195 | 1.0 | 2.0 | 0.00 | 0.29 | 0.29 | 73 | 1013.2 |
| 20260831194742 | 84 | 229 | 3.0 | 3.0 | 0.00 | 0.29 | 0.29 | 72 | 1013.1 |
| 20260831194238 | 85 | 256 | 1.0 | 1.0 | 0.00 | 0.29 | 0.29 | 70 | 1013.1 |
| 20260831193731 | 86 | 249 | 2.0 | 2.0 | 0.00 | 0.29 | 0.29 | 70 | 1013.2 |
| 20260831193227 | 86 | 220 | 4.0 | 6.0 | 0.00 | 0.29 | 0.29 | 69 | 1013.2 |
| 20260831192722 | 86 | 340 | 2.0 | 2.0 | 0.00 | 0.29 | 0.29 | 69 | 1013.4 |
| 20260831192217 | 86 | 334 | 4.0 | 6.0 | 0.00 | 0.29 | 0.29 | 68 | 1013.1 |
| 20260831191713 | 87 | 285 | 5.0 | 9.0 | 0.00 | 0.29 | 0.29 | 67 | 1013.3 |
| 20260831191209 | 87 | 98 | 3.0 | 5.0 | 0.00 | 0.29 | 0.29 | 69 | 1013.2 |
| 20260831190704 | 87 | 281 | 4.0 | 6.0 | 0.00 | 0.29 | 0.29 | 69 | 1013.3 |
| 20260831190203 | 86 | 252 | 2.0 | 3.0 | 0.00 | 0.29 | 0.29 | 71 | 1013.2 |
| 20260831185658 | 86 | 210 | 5.0 | 8.0 | 0.00 | 0.29 | 0.29 | 70 | 1013.1 |
| 20260831185153 | 85 | 31 | 4.0 | 6.0 | 0.00 | 0.29 | 0.29 | 70 | 1013.1 |
| 20260831184648 | 86 | 227 | 3.0 | 6.0 | 0.00 | 0.29 | 0.29 | 70 | 1013.1 |
| 20260831184144 | 86 | 86 | 1.0 | 2.0 | 0.00 | 0.29 | 0.29 | 70 | 1013.2 |
| 20260831183643 | 86 | 272 | 3.0 | 5.0 | 0.00 | 0.29 | 0.29 | 70 | 1013.2 |
| 20260831183142 | 85 | 177 | 5.0 | 7.0 | 0.00 | 0.29 | 0.29 | 70 | 1013.1 |
| 20260831182641 | 84 | 241 | 3.0 | 5.0 | 0.00 | 0.29 | 0.29 | 71 | 1013.5 |
| 20260831182138 | 84 | 136 | 3.0 | 5.0 | 0.00 | 0.29 | 0.29 | 72 | 1013.5 |
| 20260831181638 | 83 | 214 | 1.0 | 1.0 | 0.00 | 0.29 | 0.29 | 73 | 1013.8 |
| 20260831181138 | 84 | 166 | 4.0 | 5.0 | 0.00 | 0.29 | 0.29 | 72 | 1013.5 |
| 20260831180633 | 85 | 243 | 3.0 | 5.0 | 0.00 | 0.29 | 0.29 | 70 | 1013.7 |
| 20260831180128 | 84 | 96 | 1.0 | 1.0 | 0.00 | 0.29 | 0.29 | 70 | 1013.6 |
| 20260831175622 | 84 | 307 | 2.0 | 5.0 | 0.00 | 0.29 | 0.29 | 71 | 1013.4 |
| 20260831175120 | 83 | 236 | 3.0 | 5.0 | 0.00 | 0.29 | 0.29 | 71 | 1013.5 |
| 20260831174619 | 83 | 110 | 2.0 | 3.0 | 0.00 | 0.29 | 0.29 | 71 | 1013.6 |
| 20260831174114 | 84 | 188 | 3.0 | 6.0 | 0.00 | 0.29 | 0.29 | 70 | 1013.6 |
| 20260831173613 | 84 | 204 | 2.0 | 3.0 | 0.00 | 0.29 | 0.29 | 70 | 1013.7 |
| 20260831173109 | 83 | 149 | 1.0 | 2.0 | 0.00 | 0.29 | 0.29 | 71 | 1014.0 |
| 20260831172609 | 83 | 110 | 3.0 | 3.0 | 0.00 | 0.29 | 0.29 | 72 | 1013.5 |
| 20260831172104 | 84 | 231 | 2.0 | 2.0 | 0.00 | 0.29 | 0.29 | 71 | 1013.6 |
| 20260831171559 | 84 | 266 | 3.0 | 3.0 | 0.00 | 0.29 | 0.29 | 71 | 1013.9 |
| 20260831171056 | 84 | 161 | 2.0 | 3.0 | 0.00 | 0.29 | 0.29 | 71 | 1014.0 |
| 20260831170552 | 84 | 257 | 4.0 | 7.0 | 0.00 | 0.29 | 0.29 | 71 | 1013.9 |
| 20260831170050 | 84 | 150 | 3.0 | 5.0 | 0.00 | 0.29 | 0.29 | 72 | 1013.8 |
| 20260831165549 | 83 | 163 | 3.0 | 6.0 | 0.00 | 0.29 | 0.29 | 72 | 1013.8 |
| 20260831165046 | 83 | 157 | 3.0 | 5.0 | 0.00 | 0.29 | 0.29 | 72 | 1013.9 |
| 20260831164542 | 82 | 94 | 1.0 | 1.0 | 0.00 | 0.29 | 0.29 | 74 | 1014.0 |
| 20260831164037 | 82 | 109 | 3.0 | 5.0 | 0.00 | 0.29 | 0.29 | 74 | 1013.9 |
| 20260831163532 | 82 | 123 | 3.0 | 5.0 | 0.00 | 0.29 | 0.29 | 72 | 1013.9 |
| 20260831163028 | 82 | 151 | 3.0 | 5.0 | 0.00 | 0.29 | 0.29 | 73 | 1014.1 |